This is the latest recevied weather packets stored in our database for station/object DF7PN-WX. If no packets are shown the sender has not sent any weather packets the latest 10 day(s).
| Time | Temp. | Humidity | Pressure | Rain* | Wind** | Luminosity | Snow |
|---|---|---|---|---|---|---|---|
| 1777989377 | 17.22° C | 10% | - | - | - | - | - |
| 1777989077 | 17.22° C | 10% | - | - | - | - | - |
| 1777988777 | 17.22° C | 10% | - | - | - | - | - |
| 1777988477 | 17.22° C | 99% | 1008.7 hPa | - | - | - | - |
| 1777988177 | 17.22° C | 99% | 1008.7 hPa | - | - | - | - |
| 1777987877 | 17.22° C | 96% | 1008.7 hPa | - | - | - | - |
| 1777987577 | 17.22° C | 96% | 1008.7 hPa | - | - | - | - |
| 1777987277 | 17.22° C | 93% | 1008.8 hPa | - | - | - | - |
| 1777986977 | 17.78° C | 85% | 1008.8 hPa | - | - | - | - |
| 1777986677 | 18.33° C | 80% | 1008.7 hPa | - | - | - | - |
| 1777986377 | 18.89° C | 79% | 1008.5 hPa | - | - | - | - |
| 1777986076 | 18.89° C | 77% | 1008.6 hPa | - | - | - | - |
| 1777985777 | 19.44° C | 76% | 1008.5 hPa | - | - | - | - |
| 1777985476 | 19.44° C | 78% | 1008.6 hPa | - | - | - | - |
| 1777985177 | 19.44° C | 78% | 1008.6 hPa | - | - | - | - |
| 1777984876 | 19.44° C | 75% | 1008.6 hPa | - | - | - | - |
| 1777984576 | 19.44° C | 76% | 1008.6 hPa | - | - | - | - |
| 1777984276 | 19.44° C | 79% | 1008.7 hPa | - | - | - | - |
| 1777983976 | 18.89° C | 81% | 1008.6 hPa | - | - | - | - |
| 1777983676 | 18.89° C | 82% | 1008.7 hPa | - | - | - | - |
| 1777983376 | 18.89° C | 80% | 1008.7 hPa | - | - | - | - |
| 1777983076 | 18.89° C | 76% | 1008.7 hPa | - | - | - | - |
| 1777982776 | 18.89° C | 76% | 1008.8 hPa | - | - | - | - |
| 1777982476 | 19.44° C | 71% | 1008.7 hPa | - | - | - | - |
| 1777982176 | 18.89° C | 68% | 1008.8 hPa | - | - | - | - |
* Rain since midnight (hover to see other rain measurements)
** Current wind speed in m/s (hover to see current wind gust speed)